This is the latest recevied weather packets stored in our database for station/object BG5HLN-13. If no packets are shown the sender has not sent any weather packets the latest 10 day(s).
| Time | Temp. | Humidity | Pressure | Rain* | Wind** | Luminosity | Snow |
|---|---|---|---|---|---|---|---|
| 1777271206 | 29.44° C | 63% | 1008.9 hPa | 0 mm | - | - | - |
| 1777270785 | 30° C | 63% | 1009.1 hPa | 0 mm | - | - | - |
| 1777270605 | 30° C | 63% | 1009.1 hPa | 0 mm | - | - | - |
| 1777270005 | 30.56° C | 62% | 1009.2 hPa | 0 mm | - | - | - |
| 1777269405 | 30.56° C | 60% | 1009.3 hPa | 0 mm | - | - | - |
| 1777268984 | 31.11° C | 62% | 1009.4 hPa | 0 mm | - | - | - |
| 1777268805 | 31.11° C | 62% | 1009.4 hPa | 0 mm | - | - | - |
| 1777268206 | 31.11° C | 62% | 1009.5 hPa | 0 mm | - | - | - |
| 1777267605 | 31.11° C | 62% | 1009.6 hPa | 0 mm | - | - | - |
| 1777267184 | 31.11° C | 63% | 1009.8 hPa | 0 mm | - | - | - |
| 1777267005 | 30.56° C | 62% | 1009.8 hPa | 0 mm | - | - | - |
| 1777266405 | 30.56° C | 64% | 1009.8 hPa | 0 mm | - | - | - |
| 1777265805 | 30.56° C | 63% | 1009.9 hPa | 0 mm | - | - | - |
| 1777265384 | 30.56° C | 63% | 1010 hPa | 0 mm | - | - | - |
| 1777265206 | 30.56° C | 64% | 1010 hPa | 0 mm | - | - | - |
| 1777264604 | 30° C | 64% | 1010.2 hPa | 0 mm | - | - | - |
| 1777264005 | 29.44° C | 63% | 1010.3 hPa | 0 mm | - | - | - |
| 1777263585 | 29.44° C | 64% | 1010.3 hPa | 0 mm | - | - | - |
| 1777263404 | 29.44° C | 64% | 1010.3 hPa | 0 mm | - | - | - |
| 1777262805 | 29.44° C | 65% | 1010.3 hPa | 0 mm | - | - | - |
| 1777262205 | 28.89° C | 65% | 1010.6 hPa | 0 mm | - | - | - |
| 1777261784 | 28.89° C | 63% | 1010.6 hPa | 0 mm | - | - | - |
| 1777261605 | 28.89° C | 64% | 1010.7 hPa | 0 mm | - | - | - |
| 1777261005 | 28.33° C | 66% | 1010.8 hPa | 0 mm | - | - | - |
| 1777260405 | 28.33° C | 65% | 1010.7 hPa | 0 mm | - | - | - |
* Rain latest hour (hover to see other rain measurements)
** Current wind speed in m/s (hover to see current wind gust speed)